Tracking 21612 objects as of 20-Oct-2020
HD Live streaming from Space Station
objects crossing your sky now

MOLNIYA 3-27

Track MOLNIYA 3-27 now!
MOLNIYA 3-27 is classified as:


NORAD ID: 16393
Int'l Code: 1985-117A
Perigee: 2,293.5 km
Apogee: 36,093.2 km
Inclination: 64.6 °
Period: 678.0 minutes
Semi major axis: 25564 km
RCS: 15.138 m2 (large)
Launch date: December 24, 1985
Source: Commonwealth of Independent States (former USSR) (CIS)
Launch site: PLESETSK MISSILE AND SPACE COMPLEX (PKMTR)
aabbcc
Your satellite tracking list
Your tracking list is empty




NASA's NSSDC Master Catalog

Two Line Element Set (TLE):
1 16393U 85117A   20293.76363903 +.00000116 +00000-0 +00000-0 0  9995
2 16393 064.6368 152.3783 6610712 255.0613 027.8766 02.12398303261333
Source of the keplerian elements: AFSPC